Precipitable_Water
0.68 0.68 0.65 0.59 0.57 0.58 0.62 0.58 0.59 0.60 0.58 0.57 0.57 0.58 0.60 0.62 0.62 0.60 0.60 0.59 0.58 0.56 0.54 0.52 0.51 0.50 0.50 0.50 0.50 0.50 0.50 0.50 0.50 0.49 0.48 0.48 0.47 0.46 0.45 0.44 0.44 0.45
0.70 0.69 0.68 0.66 0.62 0.61 0.63 0.63 0.62 0.61 0.60 0.60 0.60 0.61 0.63 0.65 0.63 0.64 0.64 0.61 0.59 0.58 0.56 0.54 0.52 0.51 0.51 0.51 0.50 0.49 0.49 0.49 0.47 0.49 0.47 0.47 0.48 0.47 0.44 0.44 0.43 0.43
0.73 0.71 0.69 0.67 0.66 0.65 0.63 0.65 0.64 0.64 0.64 0.65 0.63 0.64 0.67 0.68 0.63 0.65 0.68 0.66 0.63 0.62 0.58 0.55 0.52 0.51 0.51 0.50 0.49 0.49 0.48 0.46 0.46 0.48 0.48 0.46 0.47 0.46 0.45 0.47 0.44 0.41
0.77 0.76 0.74 0.71 0.71 0.71 0.70 0.67 0.66 0.66 0.67 0.69 0.66 0.68 0.71 0.67 0.64 0.66 0.68 0.68 0.68 0.66 0.63 0.59 0.54 0.52 0.51 0.51 0.50 0.49 0.48 0.48 0.48 0.48 0.46 0.46 0.46 0.46 0.44 0.44 0.42 0.43
0.83 0.82 0.81 0.79 0.78 0.77 0.77 0.71 0.68 0.67 0.67 0.69 0.71 0.71 0.70 0.68 0.66 0.67 0.68 0.67 0.69 0.68 0.67 0.62 0.59 0.56 0.53 0.51 0.51 0.49 0.48 0.48 0.47 0.49 0.49 0.47 0.47 0.46 0.44 0.44 0.42 0.41
0.88 0.87 0.85 0.83 0.83 0.83 0.82 0.81 0.76 0.71 0.70 0.70 0.72 0.73 0.71 0.71 0.70 0.70 0.71 0.70 0.71 0.70 0.68 0.66 0.62 0.60 0.57 0.56 0.53 0.52 0.49 0.49 0.48 0.47 0.47 0.47 0.47 0.46 0.44 0.44 0.41 0.41
0.85 0.86 0.86 0.88 0.87 0.87 0.87 0.88 0.87 0.82 0.77 0.76 0.77 0.75 0.75 0.73 0.71 0.72 0.72 0.72 0.72 0.73 0.71 0.68 0.65 0.63 0.62 0.60 0.57 0.54 0.51 0.51 0.49 0.48 0.46 0.47 0.48 0.45 0.45 0.44 0.41 0.39
0.84 0.85 0.87 0.88 0.86 0.87 0.88 0.90 0.92 0.91 0.90 0.86 0.81 0.81 0.80 0.77 0.75 0.76 0.76 0.75 0.73 0.73 0.72 0.71 0.68 0.67 0.65 0.64 0.61 0.59 0.56 0.54 0.50 0.49 0.46 0.47 0.44 0.44 0.46 0.43 0.42 0.41
0.94 0.89 0.86 0.85 0.84 0.85 0.86 0.89 0.92 0.95 0.98 0.96 0.92 0.89 0.87 0.84 0.81 0.81 0.79 0.78 0.76 0.74 0.73 0.71 0.69 0.67 0.67 0.65 0.64 0.63 0.61 0.59 0.56 0.53 0.50 0.48 0.46 0.45 0.43 0.43 0.40 0.41
1.00 1.00 0.97 0.94 0.90 0.88 0.85 0.86 0.88 0.92 0.97 0.97 0.97 1.00 0.96 0.91 0.89 0.87 0.85 0.82 0.78 0.76 0.73 0.71 0.69 0.68 0.66 0.65 0.64 0.63 0.63 0.62 0.61 0.58 0.57 0.55 0.52 0.50 0.47 0.46 0.44 0.41
1.00 1.03 1.01 1.00 1.00 1.00 0.97 0.97 0.95 0.93 0.94 0.95 0.96 0.96 0.99 1.01 0.99 0.98 0.95 0.90 0.84 0.80 0.77 0.75 0.71 0.69 0.67 0.66 0.66 0.66 0.64 0.64 0.63 0.61 0.60 0.58 0.58 0.57 0.53 0.51 0.49 0.46
1.00 1.05 1.04 1.02 1.02 1.02 1.01 1.01 1.03 1.01 1.00 0.99 0.98 0.97 0.98 0.98 0.96 0.97 0.96 0.96 0.95 0.95 0.91 0.84 0.78 0.75 0.71 0.67 0.66 0.66 0.65 0.65 0.63 0.63 0.61 0.59 0.59 0.58 0.58 0.58 0.55 0.52
1.00 1.01 1.01 1.02 1.04 1.05 1.04 1.03 1.04 1.05 1.05 1.03 1.02 1.00 0.98 0.97 0.98 0.98 0.98 0.94 0.94 0.96 0.94 0.93 0.90 0.84 0.78 0.74 0.71 0.70 0.68 0.66 0.64 0.63 0.61 0.60 0.59 0.57 0.56 0.55 0.53 0.52
0.83 0.94 1.00 1.05 1.07 1.08 1.06 1.04 1.05 1.05 1.06 1.05 1.04 1.00 0.98 0.99 0.99 0.98 1.00 0.98 0.96 0.95 0.94 0.94 0.93 0.91 0.87 0.82 0.77 0.74 0.73 0.72 0.69 0.65 0.61 0.60 0.58 0.56 0.55 0.53 0.51 0.50
0.57 0.61 0.67 0.73 0.81 0.90 0.98 1.02 1.04 1.05 1.05 1.05 1.03 1.02 1.01 1.01 0.99 0.97 0.96 0.95 0.95 0.94 0.92 0.93 0.92 0.92 0.91 0.89 0.82 0.79 0.77 0.73 0.73 0.70 0.65 0.60 0.56 0.54 0.55 0.56 0.54 0.52
0.48 0.49 0.50 0.52 0.54 0.59 0.65 0.76 0.84 0.91 0.97 1.00 1.01 1.02 1.01 0.99 0.98 0.97 0.95 0.93 0.94 0.95 0.94 0.92 0.88 0.87 0.88 0.87 0.83 0.78 0.74 0.70 0.69 0.66 0.64 0.61 0.57 0.53 0.52 0.53 0.56 0.57
0.41 0.42 0.43 0.44 0.48 0.51 0.52 0.54 0.62 0.68 0.68 0.73 0.79 0.87 0.93 0.96 0.96 0.97 0.97 0.93 0.88 0.85 0.86 0.88 0.88 0.86 0.83 0.83 0.82 0.78 0.74 0.68 0.63 0.60 0.59 0.58 0.56 0.54 0.52 0.50 0.51 0.55
0.39 0.40 0.40 0.41 0.41 0.42 0.47 0.52 0.54 0.58 0.60 0.62 0.65 0.67 0.74 0.82 0.84 0.88 0.90 0.89 0.88 0.85 0.85 0.83 0.82 0.80 0.78 0.77 0.76 0.72 0.68 0.63 0.59 0.57 0.54 0.53 0.51 0.49 0.48 0.47 0.48 0.49
0.39 0.38 0.38 0.38 0.40 0.41 0.43 0.47 0.48 0.49 0.51 0.54 0.56 0.61 0.65 0.68 0.73 0.78 0.81 0.84 0.85 0.82 0.80 0.81 0.78 0.76 0.75 0.72 0.69 0.67 0.64 0.61 0.56 0.54 0.51 0.50 0.48 0.47 0.46 0.45 0.46 0.45
0.37 0.37 0.37 0.37 0.38 0.39 0.40 0.40 0.42 0.43 0.44 0.46 0.50 0.54 0.55 0.58 0.64 0.69 0.73 0.76 0.76 0.75 0.75 0.75 0.72 0.72 0.70 0.67 0.65 0.63 0.61 0.58 0.54 0.52 0.50 0.48 0.46 0.45 0.45 0.45 0.45 0.44
0.35 0.35 0.36 0.36 0.37 0.37 0.38 0.38 0.38 0.40 0.43 0.45 0.47 0.48 0.48 0.48 0.51 0.55 0.61 0.65 0.68 0.70 0.69 0.67 0.67 0.67 0.65 0.63 0.62 0.59 0.55 0.53 0.53 0.51 0.49 0.48 0.47 0.47 0.46 0.45 0.45 0.45
0.35 0.34 0.35 0.36 0.37 0.38 0.38 0.38 0.39 0.38 0.39 0.43 0.45 0.48 0.50 0.53 0.54 0.54 0.55 0.56 0.58 0.60 0.61 0.60 0.60 0.60 0.58 0.57 0.56 0.53 0.51 0.51 0.53 0.51 0.49 0.48 0.47 0.46 0.45 0.44 0.44 0.44
0.35 0.35 0.35 0.37 0.38 0.37 0.37 0.39 0.39 0.39 0.40 0.43 0.43 0.44 0.47 0.50 0.53 0.54 0.55 0.55 0.54 0.56 0.54 0.54 0.55 0.55 0.56 0.54 0.52 0.49 0.49 0.50 0.51 0.50 0.48 0.48 0.47 0.46 0.45 0.45 0.45 0.46
0.38 0.37 0.37 0.37 0.38 0.38 0.38 0.40 0.42 0.43 0.43 0.45 0.43 0.44 0.46 0.51 0.55 0.55 0.53 0.53 0.54 0.54 0.54 0.54 0.54 0.54 0.54 0.52 0.51 0.50 0.51 0.50 0.49 0.49 0.49 0.47 0.46 0.46 0.46 0.45 0.46 0.46
0.38 0.39 0.39 0.39 0.39 0.40 0.41 0.41 0.42 0.43 0.45 0.47 0.47 0.48 0.49 0.54 0.56 0.52 0.51 0.54 0.54 0.55 0.56 0.55 0.55 0.55 0.54 0.52 0.50 0.48 0.48 0.51 0.52 0.51 0.48 0.47 0.46 0.44 0.42 0.42 0.44 0.47
0.40 0.40 0.40 0.39 0.40 0.41 0.43 0.43 0.45 0.45 0.45 0.46 0.50 0.52 0.53 0.52 0.50 0.50 0.52 0.52 0.52 0.54 0.56 0.58 0.57 0.55 0.52 0.49 0.47 0.47 0.47 0.48 0.46 0.43 0.41 0.41 0.40 0.39 0.39 0.42 0.45 0.46
Wind_Speed
15 15 14 14 13 13 12 12 12 12 11 11 10 10 10 10 10 9 9 9 9 9 9 9 9 9 9 9 9 9 9 9 9 10 10 10 11 11 11 11 11 12
17 16 15 15 14 14 13 13 13 13 12 12 12 11 11 11 11 10 10 9 9 9 9 9 9 9 9 9 9 9 9 9 9 10 10 10 11 11 11 11 12 12
18 17 17 16 16 15 15 14 14 14 13 13 13 12 12 12 12 12 11 10 10 10 10 10 10 10 10 9 10 10 10 10 10 10 10 10 11 11 11 11 11 12
19 19 18 18 17 16 16 15 15 15 15 14 14 14 14 13 13 13 13 12 12 11 11 11 10 10 10 10 10 10 10 11 11 11 11 11 11 11 11 12 12 12
21 20 19 19 18 17 17 17 16 16 16 16 15 15 15 15 15 15 14 14 14 13 13 12 12 11 11 11 11 11 11 11 12 12 12 12 12 12 12 12 13 13
22 21 21 20 19 19 18 18 18 18 17 17 17 16 16 16 16 16 16 16 16 15 15 14 14 13 13 12 12 12 12 12 12 13 13 13 13 13 14 14 14 14
23 23 22 22 21 20 20 20 19 19 19 18 18 18 18 18 18 17 17 17 17 17 16 16 15 15 14 14 14 13 13 13 13 13 13 14 14 14 14 15 15 15
24 24 24 23 23 22 22 21 21 21 20 20 20 20 20 19 19 19 19 19 18 18 17 17 17 17 16 16 15 15 15 15 15 15 15 15 15 15 15 16 16 16
25 25 25 25 24 24 24 24 23 22 22 22 21 21 21 21 21 21 21 20 20 19 19 19 18 18 18 17 17 17 16 16 16 16 16 16 16 16 17 17 17 18
24 25 26 26 26 26 25 25 25 25 24 24 23 23 23 23 23 22 22 22 21 21 21 20 20 19 19 19 18 18 18 17 17 17 18 18 18 18 18 18 19 19
25 25 26 26 27 27 27 27 27 27 26 26 26 25 24 24 24 24 23 23 23 23 23 22 21 21 20 20 20 20 19 19 19 19 19 19 19 20 20 20 20 21
25 25 25 26 27 28 28 27 27 28 28 27 27 27 26 26 26 25 25 25 25 25 25 24 23 23 22 22 22 21 21 21 21 21 21 21 21 21 21 22 22 22
25 26 26 27 27 28 28 28 28 28 29 29 28 28 27 27 27 28 28 28 28 27 27 26 25 25 24 24 24 24 23 23 23 23 23 23 23 23 23 23 24 24
25 25 26 27 27 28 28 28 28 29 29 29 29 29 29 29 30 30 30 30 30 30 29 28 27 27 26 26 26 26 25 25 24 25 25 24 24 25 25 25 25 26
26 26 27 27 27 28 28 28 29 29 29 30 30 31 31 31 31 32 32 32 32 32 31 31 30 29 28 28 27 27 26 25 25 25 25 26 26 26 26 27 27 28
28 29 29 29 30 30 30 30 30 30 30 31 32 33 33 33 33 33 33 32 33 33 33 32 31 31 30 29 28 28 27 26 26 26 27 27 27 28 28 28 29 29
30 31 31 32 32 32 32 32 32 32 32 32 33 33 34 34 34 34 34 34 34 34 34 33 33 33 32 30 30 29 29 28 28 28 29 29 29 30 30 30 31 31
32 32 33 33 34 34 34 34 34 34 34 34 34 34 34 35 35 35 35 35 35 35 35 35 35 34 33 32 32 31 31 30 30 30 31 31 31 31 31 32 32 33
34 34 34 34 35 35 35 35 36 36 36 36 36 36 36 36 36 36 36 36 36 36 36 36 36 36 35 34 34 33 32 32 32 32 32 32 32 33 33 33 34 35
35 35 35 35 35 36 36 36 36 37 37 37 37 37 37 37 37 37 37 37 37 37 37 37 37 37 36 35 35 34 34 34 34 34 34 34 34 35 35 36 36 36
35 35 35 36 36 36 36 36 37 37 37 37 37 38 38 38 38 38 38 38 37 37 37 38 38 37 36 36 35 35 35 35 35 35 35 36 36 36 37 37 37 37
35 35 35 35 36 36 36 36 37 37 37 37 38 38 37 37 38 38 38 38 38 38 38 38 38 37 37 36 36 35 35 35 35 36 36 36 37 37 38 38 38 38
35 35 35 35 35 35 36 36 36 37 37 37 38 38 37 38 37 37 38 37 37 37 38 38 37 37 36 36 35 35 35 35 35 35 35 36 37 37 38 38 38 38
35 35 36 35 35 36 36 36 36 37 37 37 37 37 37 37 37 37 37 37 37 37 37 37 36 36 35 35 35 35 35 35 35 35 35 36 37 37 37 38 38 39
35 35 35 36 36 36 36 36 36 36 37 37 37 37 37 37 36 36 36 36 36 37 37 36 35 35 35 34 34 35 35 35 35 36 36 37 37 37 38 38 38 39
35 35 35 36 36 35 35 35 36 36 36 36 36 36 36 36 35 35 35 35 35 35 35 34 34 34 34 34 34 34 34 34 35 36 37 37 38 38 38 39 39 39
Wind_Direction
241 242 243 244 246 248 249 250 251 252 252 250 250 250 250 251 251 252 254 255 255 257 256 255 254 253 253 254 254 255 256 255 254 253 252 253 254 254 254 254 254 254
243 244 245 246 248 249 249 250 251 253 254 253 252 250 249 250 251 252 254 255 256 258 257 257 257 256 256 256 256 257 257 257 256 256 255 255 256 256 256 256 256 256
243 245 246 247 249 249 250 251 252 254 255 255 254 252 251 251 251 252 253 254 256 258 258 259 259 259 259 259 259 259 260 259 259 259 258 258 258 259 259 259 259 259
244 245 247 249 250 251 251 253 253 255 256 256 256 255 253 252 251 252 253 254 256 257 258 260 260 260 261 260 261 261 261 261 262 261 261 261 260 260 261 261 262 262
245 246 247 248 250 251 252 253 254 254 255 256 256 256 256 254 253 253 254 254 256 257 257 259 260 260 260 261 262 262 261 262 262 262 263 264 264 263 263 263 263 264
246 246 247 248 249 251 253 254 255 255 255 256 256 257 256 256 255 255 255 255 256 257 257 258 259 260 261 261 262 262 262 262 262 262 262 263 265 266 266 266 266 267
246 246 247 248 249 251 253 255 256 256 257 257 257 257 257 256 255 255 255 256 256 257 257 258 259 260 261 262 263 263 263 263 263 263 262 262 264 265 266 267 268 268
247 247 247 248 249 252 254 255 256 256 257 258 259 258 257 257 256 256 256 256 256 256 256 257 258 259 261 262 262 263 264 264 264 264 263 264 265 265 265 267 268 268
249 249 249 250 251 253 255 256 256 257 257 258 259 259 259 258 257 257 257 256 256 256 256 257 258 259 260 261 262 262 263 264 265 264 265 265 266 266 267 268 269 270
252 251 251 252 253 255 256 257 257 258 258 258 259 260 260 259 258 257 257 256 257 257 257 258 258 259 259 260 261 262 262 264 265 265 266 266 267 268 269 269 270 271
253 253 253 253 254 256 257 258 258 258 259 259 259 259 260 259 258 257 257 256 257 257 258 258 259 259 259 260 261 261 261 262 264 265 266 267 269 270 271 271 272 273
254 254 255 256 256 257 258 259 259 258 258 259 259 259 259 259 258 257 257 257 257 257 257 258 259 259 259 260 260 261 262 262 263 264 266 267 269 271 272 273 274 275
257 257 258 259 259 259 259 261 260 258 258 259 259 258 258 258 257 257 257 257 257 257 257 257 258 258 258 258 259 261 263 264 265 265 267 268 269 271 272 273 274 275
260 259 259 260 261 261 261 261 260 258 258 259 258 258 258 258 257 257 257 257 257 257 257 257 257 257 258 259 260 262 263 264 265 266 267 268 269 270 271 273 274 275
260 260 260 261 262 262 262 262 260 259 258 258 258 258 259 259 258 258 258 258 257 256 257 257 256 257 259 259 260 261 261 262 264 265 266 267 269 271 272 273 273 274
261 261 261 262 262 263 263 262 261 260 259 259 258 259 259 259 258 258 258 257 257 257 257 257 256 257 258 258 258 259 260 262 264 265 266 267 269 271 273 273 274 274
262 263 263 263 263 263 262 262 262 261 260 260 259 259 259 258 258 257 257 258 257 257 257 257 257 258 258 258 258 259 260 262 264 265 266 268 270 272 273 274 275 275
264 264 265 264 264 263 263 262 262 261 260 260 260 260 259 258 258 258 258 258 257 257 258 258 259 259 258 259 260 261 262 263 264 265 266 268 269 271 273 274 275 276
265 265 265 265 264 264 263 263 262 261 261 261 261 260 260 259 258 258 258 257 257 257 258 258 259 259 258 259 261 262 264 265 266 267 268 269 270 272 273 274 275 276
266 266 265 265 264 264 264 263 262 262 261 261 260 260 260 260 259 259 258 258 258 258 258 258 259 258 258 259 261 263 265 266 267 268 269 271 272 273 274 275 276 276
267 266 266 265 265 264 264 263 263 262 261 261 260 259 259 259 259 259 258 258 258 258 258 258 258 257 257 260 261 262 264 266 268 269 270 271 272 273 274 275 276 276
267 266 266 265 264 264 264 263 263 262 261 261 260 260 259 259 259 258 257 257 257 257 257 257 257 256 257 259 260 262 265 267 269 270 271 272 273 274 275 276 276 276
267 267 266 265 264 264 263 263 263 262 262 261 260 259 259 259 259 258 257 256 256 256 256 256 255 255 257 259 260 263 266 268 270 271 271 272 273 274 275 276 277 276
267 267 266 265 264 264 264 263 263 262 262 261 260 259 259 258 258 257 257 256 256 256 255 254 254 255 256 259 261 264 267 269 270 271 272 272 273 274 275 276 276 276
268 267 266 265 265 264 264 264 264 263 262 260 260 259 259 258 257 256 256 256 256 255 253 252 253 255 257 259 262 264 267 269 270 271 272 273 274 275 276 276 277 277
268 267 266 266 265 265 265 265 265 264 262 261 260 259 258 257 257 257 256 255 254 253 251 251 253 255 257 260 262 265 267 269 270 271 272 274 275 275 276 277 277 277